This demonstration page uses our WeatherBlox Daily Observations layout. Learn more.

Left ArrowRight Arrow

39.29038, -76.61219

Hourly Observations for February 28, 2019

Temp ( °F °C ) Dew Point ( °F °C ) Humidity (%) Winds ( mph kmh ) Pressure ( in mb ) Visibility ( mi km ) Precip ( " mm )
12:54 am 00:54 undefined 40 4.4 30 -1.1 68 68 undefined N/A 29.97 1015 N/A N/A
1:54 am 01:54 undefined 40 4.4 32 undefined 73 73 undefined N/A 29.96 1015 N/A N/A
2:54 am 02:54 undefined 40 4.4 33 0.6 77 77 undefined N/A 29.95 1014 N/A N/A
3:54 am 03:54 undefined 40 4.4 33 0.6 77 77 undefined N/A 29.98 1015 N/A N/A
4:54 am 04:54 undefined 40 4.4 31 -0.6 70 70 undefined N/A 30.01 1016 N/A N/A
5:54 am 05:54 undefined 41 5 31 -0.6 67 67 undefined N/A 30.03 1017 N/A N/A
6:54 am 06:54 undefined 41 5 29 -1.7 62 62 undefined N/A 30.06 1018 N/A N/A
7:54 am 07:54 undefined 41 5 27 -2.8 57 57 undefined N/A 30.11 1020 N/A N/A
8:54 am 08:54 undefined 41 5 24 -4.4 51 51 undefined N/A 30.14 1021 N/A N/A
9:54 am 09:54 undefined 41 5 21 -6.1 45 45 undefined N/A 30.16 1021 N/A N/A
10:54 am 10:54 undefined 42 5.6 19 -7.2 40 40 undefined N/A 30.17 1022 N/A N/A
11:54 am 11:54 undefined 42 5.6 17 -8.3 36 36 undefined N/A 30.19 1022 N/A N/A
12:54 pm 12:54 undefined 44 6.7 17 -8.3 34 34 undefined N/A 30.17 1022 N/A N/A
1:54 pm 13:54 undefined 44 6.7 16 -8.9 32 32 undefined N/A 30.17 1022 N/A N/A
2:54 pm 14:54 undefined 45 7.2 17 -8.3 33 33 undefined N/A 30.17 1022 N/A N/A
3:54 pm 15:54 undefined 44 6.7 16 -8.9 32 32 undefined N/A 30.18 1022 N/A N/A
4:54 pm 16:54 undefined 43 6.1 16 -8.9 34 34 undefined N/A 30.18 1022 N/A N/A
5:54 pm 17:54 undefined 41 5 18 -7.8 39 39 undefined N/A 30.19 1022 N/A N/A
6:54 pm 18:54 undefined 39 3.9 17 -8.3 41 41 undefined N/A 30.20 1023 N/A N/A
7:54 pm 19:54 undefined 38 3.3 17 -8.3 43 43 undefined N/A 30.22 1023 N/A N/A
8:54 pm 20:54 undefined 37 2.8 15 -9.4 41 41 undefined N/A 30.22 1023 N/A N/A
9:54 pm 21:54 undefined 38 3.3 16 -8.9 41 41 undefined N/A 30.25 1024 N/A N/A
10:54 pm 22:54 undefined 37 2.8 16 -8.9 42 42 undefined N/A 30.24 1024 N/A N/A
11:54 pm 23:54 undefined 37 2.8 18 -7.8 46 46 undefined N/A 30.22 1024 N/A N/A

Powered by AerisWeather